QPF
0.05 0.06 0.07 0.07 0.08 0.12 0.16 0.18 0.19 0.20 0.22 0.21 0.19 0.18 0.19 0.20 0.21 0.21 0.15 0.14 0.16 0.17 0.21 0.20 0.14 0.10 0.07 0.04 0.02 0.01 0.00 0.00 0.00 0.00 0.00 0.00 0.00 0.00 0.01 0.00 0.00 0.00 0.00
0.06 0.06 0.05 0.04 0.05 0.07 0.09 0.11 0.11 0.13 0.15 0.17 0.15 0.15 0.18 0.20 0.20 0.25 0.27 0.28 0.31 0.29 0.27 0.25 0.20 0.15 0.10 0.07 0.05 0.03 0.02 0.01 0.01 0.00 0.00 0.00 0.00 0.01 0.01 0.00 0.00 0.00 0.00
0.05 0.03 0.03 0.02 0.03 0.04 0.05 0.06 0.06 0.07 0.08 0.08 0.07 0.09 0.10 0.10 0.12 0.15 0.20 0.27 0.34 0.37 0.32 0.26 0.21 0.16 0.13 0.11 0.09 0.07 0.05 0.03 0.02 0.01 0.01 0.00 0.00 0.01 0.00 0.00 0.00 0.00 0.00
0.03 0.02 0.01 0.01 0.02 0.03 0.03 0.03 0.03 0.04 0.04 0.04 0.04 0.04 0.05 0.06 0.08 0.11 0.12 0.14 0.20 0.23 0.25 0.27 0.24 0.20 0.19 0.18 0.17 0.15 0.11 0.08 0.04 0.02 0.01 0.00 0.00 0.00 0.00 0.00 0.00 0.00 0.00
0.01 0.00 0.01 0.01 0.01 0.02 0.01 0.01 0.01 0.02 0.02 0.03 0.03 0.03 0.03 0.04 0.04 0.06 0.07 0.09 0.12 0.14 0.16 0.18 0.22 0.22 0.24 0.27 0.25 0.22 0.19 0.13 0.08 0.05 0.04 0.03 0.01 0.00 0.00 0.00 0.00 0.00 0.00
0.01 0.00 0.01 0.01 0.00 0.00 0.00 0.01 0.01 0.01 0.01 0.01 0.01 0.01 0.01 0.02 0.03 0.03 0.04 0.06 0.07 0.10 0.13 0.14 0.15 0.19 0.26 0.27 0.24 0.22 0.22 0.19 0.13 0.09 0.08 0.07 0.05 0.03 0.01 0.01 0.00 0.00 0.00
0.01 0.01 0.00 0.00 0.00 0.00 0.00 0.00 0.00 0.00 0.00 0.01 0.01 0.01 0.01 0.00 0.01 0.01 0.02 0.02 0.04 0.07 0.13 0.15 0.17 0.21 0.22 0.23 0.23 0.21 0.23 0.24 0.20 0.16 0.13 0.10 0.08 0.05 0.02 0.01 0.01 0.00 0.00
0.01 0.01 0.00 0.00 0.00 0.00 0.00 0.00 0.00 0.00 0.00 0.00 0.00 0.00 0.00 0.00 0.00 0.01 0.01 0.02 0.03 0.08 0.12 0.14 0.17 0.20 0.21 0.23 0.21 0.19 0.22 0.24 0.24 0.22 0.18 0.13 0.09 0.06 0.04 0.02 0.01 0.01 0.01
0.03 0.02 0.01 0.00 0.00 0.00 0.00 0.00 0.00 0.00 0.00 0.00 0.00 0.00 0.01 0.00 0.00 0.00 0.01 0.02 0.03 0.05 0.09 0.16 0.21 0.23 0.23 0.23 0.24 0.22 0.18 0.21 0.26 0.29 0.26 0.18 0.12 0.08 0.05 0.04 0.02 0.01 0.01
0.06 0.05 0.03 0.02 0.02 0.01 0.00 0.00 0.00 0.00 0.00 0.00 0.00 0.00 0.01 0.01 0.01 0.00 0.00 0.00 0.02 0.04 0.08 0.18 0.21 0.21 0.20 0.22 0.22 0.23 0.19 0.18 0.21 0.29 0.28 0.22 0.17 0.12 0.08 0.06 0.06 0.04 0.02
0.10 0.09 0.08 0.05 0.03 0.01 0.00 0.00 0.00 0.00 0.00 0.00 0.00 0.00 0.00 0.01 0.01 0.01 0.00 0.00 0.01 0.01 0.04 0.11 0.20 0.26 0.18 0.14 0.16 0.19 0.23 0.24 0.22 0.22 0.22 0.20 0.16 0.12 0.09 0.07 0.09 0.09 0.06
0.11 0.12 0.12 0.09 0.05 0.04 0.02 0.01 0.01 0.00 0.00 0.00 0.00 0.00 0.00 0.00 0.01 0.01 0.01 0.00 0.01 0.02 0.04 0.06 0.11 0.19 0.18 0.13 0.13 0.16 0.17 0.16 0.16 0.15 0.14 0.13 0.12 0.11 0.09 0.08 0.10 0.12 0.14
0.10 0.10 0.10 0.09 0.08 0.07 0.05 0.03 0.01 0.00 0.00 0.00 0.00 0.00 0.00 0.01 0.01 0.01 0.01 0.01 0.01 0.02 0.05 0.06 0.08 0.10 0.11 0.12 0.12 0.11 0.08 0.06 0.06 0.06 0.07 0.07 0.06 0.06 0.05 0.05 0.07 0.10 0.14
0.08 0.08 0.10 0.09 0.08 0.08 0.07 0.05 0.03 0.01 0.01 0.00 0.00 0.00 0.00 0.00 0.01 0.01 0.02 0.02 0.02 0.03 0.05 0.05 0.07 0.09 0.11 0.11 0.10 0.07 0.05 0.04 0.05 0.05 0.04 0.04 0.03 0.03 0.03 0.03 0.04 0.05 0.06
0.03 0.04 0.06 0.06 0.07 0.07 0.06 0.05 0.03 0.02 0.02 0.01 0.01 0.00 0.00 0.00 0.00 0.01 0.02 0.03 0.03 0.03 0.04 0.04 0.04 0.06 0.08 0.07 0.07 0.05 0.03 0.04 0.03 0.03 0.02 0.02 0.03 0.02 0.03 0.04 0.04 0.04 0.04
0.01 0.02 0.02 0.03 0.05 0.05 0.04 0.05 0.04 0.03 0.03 0.02 0.01 0.00 0.00 0.00 0.00 0.01 0.02 0.03 0.06 0.07 0.06 0.05 0.06 0.07 0.08 0.05 0.04 0.03 0.02 0.02 0.02 0.01 0.01 0.01 0.02 0.01 0.02 0.02 0.03 0.03 0.03
0.00 0.00 0.01 0.01 0.01 0.02 0.03 0.03 0.03 0.02 0.02 0.02 0.01 0.00 0.00 0.01 0.01 0.01 0.02 0.03 0.05 0.08 0.06 0.05 0.06 0.08 0.07 0.04 0.03 0.02 0.02 0.02 0.01 0.01 0.01 0.01 0.02 0.02 0.02 0.02 0.02 0.01 0.02
0.00 0.00 0.00 0.00 0.01 0.01 0.01 0.02 0.02 0.02 0.03 0.03 0.02 0.01 0.00 0.01 0.01 0.01 0.01 0.02 0.05 0.07 0.07 0.06 0.05 0.06 0.07 0.05 0.03 0.02 0.02 0.03 0.02 0.02 0.01 0.01 0.01 0.01 0.02 0.02 0.01 0.01 0.01
0.00 0.00 0.00 0.00 0.00 0.01 0.01 0.01 0.02 0.02 0.02 0.02 0.02 0.02 0.01 0.01 0.01 0.01 0.01 0.03 0.05 0.07 0.07 0.07 0.06 0.07 0.07 0.05 0.05 0.04 0.03 0.03 0.03 0.03 0.02 0.01 0.01 0.01 0.01 0.01 0.01 0.01 0.01
0.00 0.00 0.00 0.00 0.00 0.00 0.01 0.01 0.02 0.02 0.02 0.02 0.02 0.02 0.01 0.01 0.01 0.01 0.01 0.03 0.04 0.05 0.05 0.06 0.06 0.07 0.06 0.06 0.05 0.04 0.05 0.05 0.05 0.04 0.03 0.02 0.02 0.01 0.01 0.01 0.01 0.01 0.01
0.00 0.00 0.00 0.00 0.00 0.00 0.01 0.01 0.02 0.02 0.03 0.03 0.03 0.02 0.01 0.01 0.01 0.01 0.01 0.02 0.03 0.03 0.04 0.05 0.05 0.06 0.07 0.07 0.06 0.05 0.04 0.05 0.05 0.04 0.03 0.02 0.01 0.01 0.00 0.01 0.01 0.01 0.01
0.01 0.01 0.00 0.00 0.00 0.00 0.00 0.01 0.01 0.02 0.03 0.04 0.03 0.03 0.02 0.01 0.01 0.01 0.01 0.02 0.04 0.03 0.03 0.05 0.05 0.05 0.07 0.06 0.05 0.05 0.04 0.04 0.05 0.04 0.03 0.03 0.02 0.01 0.00 0.00 0.01 0.01 0.01
0.01 0.01 0.01 0.01 0.00 0.00 0.00 0.00 0.01 0.02 0.03 0.03 0.04 0.04 0.03 0.01 0.01 0.01 0.01 0.01 0.02 0.03 0.04 0.05 0.06 0.04 0.05 0.05 0.05 0.04 0.04 0.04 0.04 0.04 0.02 0.02 0.01 0.00 0.00 0.00 0.00 0.00 0.00
0.00 0.00 0.01 0.01 0.00 0.00 0.01 0.01 0.02 0.02 0.03 0.03 0.04 0.04 0.04 0.03 0.02 0.02 0.02 0.01 0.01 0.01 0.02 0.03 0.05 0.04 0.03 0.03 0.04 0.04 0.04 0.05 0.05 0.04 0.01 0.00 0.00 0.00 0.00 0.00 0.00 0.00 0.00
0.00 0.00 0.01 0.01 0.01 0.00 0.01 0.02 0.04 0.04 0.05 0.05 0.05 0.05 0.05 0.03 0.03 0.03 0.03 0.02 0.01 0.02 0.03 0.05 0.04 0.05 0.04 0.04 0.03 0.04 0.05 0.05 0.05 0.03 0.01 0.00 0.00 0.00 0.00 0.00 0.00 0.00 0.00
0.00 0.01 0.01 0.02 0.01 0.01 0.01 0.02 0.05 0.06 0.09 0.09 0.08 0.07 0.06 0.05 0.04 0.04 0.04 0.03 0.03 0.03 0.03 0.04 0.04 0.04 0.03 0.03 0.03 0.02 0.03 0.04 0.03 0.02 0.01 0.00 0.00 0.00 0.00 0.00 0.00 0.00 0.00
MSLP
1012.28 1012.33 1012.25 1012.09 1011.93 1011.82 1011.79 1011.84 1011.96 1012.12 1012.26 1012.37 1012.42 1012.42 1012.38 1012.32 1012.26 1012.22 1012.21 1012.22 1012.26 1012.32 1012.40 1012.51 1012.65 1012.84 1013.07 1013.34 1013.62 1013.91 1014.19 1014.45 1014.69 1014.91 1015.15 1015.40 1015.68 1015.98 1016.30 1016.61 1016.91 1017.19 1017.44
1011.91 1012.04 1012.04 1011.95 1011.84 1011.75 1011.72 1011.74 1011.83 1011.93 1012.03 1012.09 1012.11 1012.08 1012.02 1011.94 1011.86 1011.80 1011.77 1011.77 1011.80 1011.87 1011.98 1012.12 1012.30 1012.51 1012.74 1013.00 1013.25 1013.50 1013.73 1013.94 1014.15 1014.37 1014.60 1014.87 1015.17 1015.50 1015.84 1016.18 1016.48 1016.76 1017.00
1011.50 1011.71 1011.80 1011.80 1011.77 1011.73 1011.72 1011.75 1011.81 1011.87 1011.92 1011.94 1011.91 1011.85 1011.75 1011.63 1011.52 1011.43 1011.36 1011.34 1011.36 1011.43 1011.53 1011.69 1011.87 1012.09 1012.32 1012.56 1012.78 1012.99 1013.18 1013.36 1013.55 1013.76 1014.00 1014.29 1014.61 1014.97 1015.33 1015.68 1015.99 1016.27 1016.52
1011.07 1011.35 1011.53 1011.64 1011.70 1011.74 1011.78 1011.83 1011.87 1011.91 1011.92 1011.89 1011.81 1011.70 1011.57 1011.41 1011.26 1011.12 1011.02 1010.96 1010.94 1010.97 1011.06 1011.20 1011.37 1011.57 1011.78 1011.99 1012.19 1012.36 1012.52 1012.69 1012.86 1013.07 1013.33 1013.63 1013.99 1014.36 1014.75 1015.11 1015.45 1015.74 1016.00
1010.64 1010.97 1011.23 1011.44 1011.60 1011.74 1011.84 1011.92 1011.97 1011.99 1011.96 1011.89 1011.78 1011.64 1011.46 1011.28 1011.09 1010.91 1010.76 1010.64 1010.57 1010.56 1010.59 1010.68 1010.80 1010.96 1011.14 1011.31 1011.47 1011.62 1011.77 1011.92 1012.10 1012.32 1012.60 1012.93 1013.30 1013.71 1014.11 1014.50 1014.84 1015.15 1015.43
1010.25 1010.58 1010.90 1011.20 1011.46 1011.67 1011.85 1011.97 1012.03 1012.05 1012.00 1011.91 1011.78 1011.61 1011.42 1011.22 1011.00 1010.80 1010.61 1010.44 1010.31 1010.22 1010.18 1010.19 1010.24 1010.33 1010.45 1010.57 1010.70 1010.82 1010.96 1011.11 1011.30 1011.54 1011.83 1012.19 1012.59 1013.01 1013.43 1013.82 1014.18 1014.50 1014.80
1009.90 1010.22 1010.57 1010.91 1011.24 1011.53 1011.76 1011.92 1012.01 1012.03 1011.98 1011.89 1011.76 1011.59 1011.41 1011.21 1011.00 1010.79 1010.57 1010.36 1010.17 1010.00 1009.88 1009.80 1009.76 1009.77 1009.80 1009.87 1009.95 1010.04 1010.16 1010.32 1010.52 1010.77 1011.09 1011.45 1011.86 1012.29 1012.71 1013.11 1013.47 1013.80 1014.11
1009.64 1009.91 1010.25 1010.61 1010.98 1011.30 1011.57 1011.76 1011.87 1011.90 1011.87 1011.79 1011.68 1011.55 1011.40 1011.24 1011.06 1010.86 1010.64 1010.40 1010.16 1009.93 1009.73 1009.56 1009.43 1009.34 1009.29 1009.29 1009.31 1009.38 1009.48 1009.62 1009.82 1010.08 1010.40 1010.76 1011.16 1011.57 1011.98 1012.36 1012.72 1013.05 1013.36
1009.49 1009.69 1009.98 1010.32 1010.68 1011.01 1011.29 1011.49 1011.60 1011.65 1011.64 1011.59 1011.52 1011.44 1011.35 1011.25 1011.12 1010.96 1010.77 1010.53 1010.27 1010.00 1009.73 1009.49 1009.27 1009.10 1008.98 1008.90 1008.87 1008.89 1008.96 1009.09 1009.27 1009.52 1009.81 1010.15 1010.52 1010.90 1011.27 1011.62 1011.94 1012.25 1012.55
1009.48 1009.59 1009.80 1010.09 1010.40 1010.70 1010.95 1011.13 1011.24 1011.29 1011.30 1011.29 1011.27 1011.25 1011.23 1011.19 1011.14 1011.04 1010.88 1010.68 1010.43 1010.14 1009.85 1009.55 1009.28 1009.05 1008.87 1008.74 1008.65 1008.63 1008.66 1008.75 1008.91 1009.12 1009.37 1009.67 1009.98 1010.30 1010.61 1010.91 1011.19 1011.45 1011.72
1009.60 1009.62 1009.75 1009.95 1010.18 1010.41 1010.61 1010.75 1010.84 1010.88 1010.90 1010.91 1010.93 1010.96 1011.00 1011.03 1011.04 1011.00 1010.91 1010.75 1010.53 1010.27 1009.99 1009.69 1009.41 1009.15 1008.93 1008.77 1008.65 1008.58 1008.58 1008.62 1008.73 1008.89 1009.09 1009.32 1009.57 1009.82 1010.06 1010.28 1010.49 1010.70 1010.91
1009.86 1009.79 1009.82 1009.91 1010.05 1010.18 1010.30 1010.38 1010.43 1010.44 1010.45 1010.47 1010.51 1010.58 1010.65 1010.73 1010.79 1010.80 1010.76 1010.66 1010.50 1010.29 1010.06 1009.80 1009.55 1009.32 1009.11 1008.94 1008.81 1008.72 1008.68 1008.68 1008.74 1008.84 1008.98 1009.14 1009.31 1009.48 1009.64 1009.78 1009.92 1010.05 1010.20
1010.20 1010.05 1009.98 1009.97 1010.00 1010.04 1010.06 1010.07 1010.05 1010.03 1010.01 1010.01 1010.04 1010.10 1010.18 1010.26 1010.34 1010.38 1010.39 1010.34 1010.25 1010.13 1009.98 1009.81 1009.64 1009.48 1009.32 1009.19 1009.07 1008.98 1008.92 1008.89 1008.90 1008.95 1009.02 1009.12 1009.22 1009.31 1009.40 1009.46 1009.52 1009.58 1009.65
1010.56 1010.35 1010.20 1010.10 1010.02 1009.96 1009.89 1009.82 1009.74 1009.66 1009.59 1009.55 1009.54 1009.56 1009.60 1009.65 1009.70 1009.75 1009.78 1009.78 1009.77 1009.74 1009.71 1009.66 1009.61 1009.56 1009.50 1009.44 1009.37 1009.31 1009.25 1009.22 1009.20 1009.21 1009.23 1009.27 1009.32 1009.35 1009.37 1009.37 1009.35 1009.33 1009.33
1010.86 1010.61 1010.40 1010.22 1010.06 1009.91 1009.77 1009.62 1009.48 1009.34 1009.21 1009.11 1009.02 1008.97 1008.93 1008.92 1008.92 1008.94 1008.97 1009.01 1009.07 1009.15 1009.24 1009.34 1009.45 1009.54 1009.61 1009.65 1009.67 1009.66 1009.64 1009.61 1009.59 1009.58 1009.58 1009.59 1009.60 1009.59 1009.56 1009.51 1009.43 1009.35 1009.27
1011.00 1010.74 1010.50 1010.27 1010.06 1009.85 1009.65 1009.45 1009.25 1009.05 1008.86 1008.68 1008.51 1008.36 1008.22 1008.12 1008.04 1008.01 1008.02 1008.09 1008.22 1008.40 1008.62 1008.88 1009.14 1009.39 1009.61 1009.79 1009.91 1009.98 1010.02 1010.03 1010.04 1010.04 1010.04 1010.04 1010.04 1010.01 1009.96 1009.88 1009.77 1009.63 1009.50
1010.90 1010.65 1010.41 1010.18 1009.95 1009.72 1009.49 1009.26 1009.02 1008.77 1008.52 1008.26 1008.00 1007.75 1007.51 1007.30 1007.14 1007.05 1007.03 1007.11 1007.29 1007.56 1007.91 1008.31 1008.74 1009.15 1009.52 1009.83 1010.08 1010.25 1010.37 1010.45 1010.50 1010.54 1010.58 1010.60 1010.61 1010.60 1010.54 1010.45 1010.32 1010.15 1009.99
1010.52 1010.32 1010.11 1009.90 1009.68 1009.46 1009.23 1008.99 1008.73 1008.45 1008.15 1007.83 1007.50 1007.15 1006.82 1006.52 1006.28 1006.12 1006.08 1006.16 1006.38 1006.73 1007.18 1007.70 1008.26 1008.82 1009.33 1009.78 1010.15 1010.44 1010.65 1010.82 1010.94 1011.05 1011.14 1011.21 1011.26 1011.27 1011.24 1011.15 1011.01 1010.84 1010.66
1009.88 1009.74 1009.59 1009.42 1009.25 1009.06 1008.85 1008.61 1008.35 1008.06 1007.73 1007.36 1006.97 1006.56 1006.16 1005.79 1005.49 1005.29 1005.22 1005.31 1005.55 1005.95 1006.48 1007.10 1007.76 1008.43 1009.07 1009.63 1010.11 1010.51 1010.83 1011.10 1011.31 1011.50 1011.67 1011.81 1011.91 1011.97 1011.97 1011.91 1011.79 1011.62 1011.44
1009.03 1008.96 1008.87 1008.77 1008.65 1008.50 1008.32 1008.11 1007.85 1007.56 1007.21 1006.83 1006.40 1005.96 1005.52 1005.11 1004.78 1004.56 1004.48 1004.57 1004.84 1005.26 1005.84 1006.51 1007.25 1008.00 1008.72 1009.38 1009.96 1010.46 1010.88 1011.25 1011.57 1011.86 1012.12 1012.34 1012.52 1012.64 1012.69 1012.66 1012.57 1012.42 1012.26
1008.05 1008.05 1008.03 1007.98 1007.91 1007.80 1007.66 1007.46 1007.22 1006.93 1006.59 1006.19 1005.77 1005.32 1004.88 1004.47 1004.14 1003.93 1003.86 1003.96 1004.23 1004.68 1005.27 1005.96 1006.73 1007.52 1008.30 1009.02 1009.68 1010.27 1010.79 1011.27 1011.69 1012.09 1012.45 1012.76 1013.02 1013.21 1013.32 1013.34 1013.29 1013.18 1013.04
1007.04 1007.09 1007.12 1007.12 1007.09 1007.01 1006.88 1006.70 1006.46 1006.17 1005.84 1005.46 1005.05 1004.62 1004.21 1003.84 1003.55 1003.37 1003.33 1003.45 1003.73 1004.18 1004.76 1005.46 1006.23 1007.03 1007.82 1008.58 1009.30 1009.96 1010.57 1011.14 1011.67 1012.17 1012.63 1013.05 1013.39 1013.66 1013.84 1013.92 1013.92 1013.85 1013.75
1006.08 1006.16 1006.22 1006.25 1006.23 1006.16 1006.02 1005.84 1005.59 1005.30 1004.98 1004.62 1004.24 1003.87 1003.52 1003.22 1002.99 1002.86 1002.87 1003.02 1003.31 1003.76 1004.33 1005.01 1005.76 1006.54 1007.34 1008.11 1008.86 1009.57 1010.25 1010.91 1011.53 1012.13 1012.68 1013.19 1013.63 1013.98 1014.23 1014.38 1014.43 1014.42 1014.36
1005.22 1005.31 1005.38 1005.40 1005.37 1005.28 1005.12 1004.91 1004.65 1004.36 1004.04 1003.71 1003.38 1003.07 1002.80 1002.58 1002.44 1002.40 1002.47 1002.66 1002.98 1003.43 1003.99 1004.64 1005.36 1006.12 1006.89 1007.67 1008.43 1009.17 1009.90 1010.61 1011.31 1011.98 1012.62 1013.21 1013.72 1014.15 1014.48 1014.70 1014.82 1014.87 1014.86
1004.46 1004.54 1004.59 1004.59 1004.53 1004.40 1004.21 1003.97 1003.68 1003.38 1003.07 1002.77 1002.50 1002.27 1002.09 1001.98 1001.93 1001.98 1002.13 1002.39 1002.75 1003.21 1003.76 1004.39 1005.08 1005.81 1006.56 1007.32 1008.08 1008.83 1009.58 1010.33 1011.07 1011.79 1012.48 1013.13 1013.71 1014.20 1014.60 1014.89 1015.09 1015.21 1015.27
1003.79 1003.84 1003.86 1003.82 1003.72 1003.55 1003.32 1003.04 1002.73 1002.42 1002.13 1001.87 1001.66 1001.51 1001.43 1001.42 1001.49 1001.64 1001.88 1002.21 1002.62 1003.11 1003.68 1004.30 1004.97 1005.67 1006.39 1007.13 1007.87 1008.62 1009.36 1010.11 1010.86 1011.60 1012.31 1012.98 1013.60 1014.15 1014.61 1014.97 1015.25 1015.44 1015.57
Thickness
5762 5760 5759 5759 5758 5757 5755 5754 5753 5752 5751 5750 5750 5749 5747 5746 5745 5744 5744 5744 5744 5745 5746 5746 5746 5746 5746 5745 5744 5743 5742 5741 5740 5739 5738 5737 5736 5736 5735 5734 5733 5732 5731
5760 5757 5756 5755 5754 5753 5752 5751 5749 5748 5748 5748 5747 5747 5746 5745 5745 5744 5743 5743 5743 5743 5742 5744 5743 5743 5743 5743 5743 5742 5742 5741 5740 5739 5739 5738 5737 5736 5736 5735 5734 5733 5732
5756 5754 5752 5750 5750 5749 5748 5747 5746 5745 5744 5744 5744 5745 5744 5744 5744 5743 5742 5741 5740 5740 5739 5740 5740 5741 5741 5741 5741 5741 5741 5741 5740 5739 5738 5738 5737 5737 5736 5735 5734 5734 5733
5751 5749 5747 5745 5746 5745 5744 5743 5741 5740 5740 5740 5741 5742 5743 5742 5742 5742 5741 5741 5739 5739 5738 5738 5738 5737 5737 5738 5738 5739 5739 5739 5738 5738 5738 5737 5737 5736 5736 5735 5735 5734 5733
5745 5744 5742 5741 5741 5740 5739 5739 5737 5736 5735 5736 5737 5739 5740 5740 5740 5741 5740 5739 5738 5738 5737 5737 5736 5735 5735 5734 5734 5735 5736 5736 5736 5736 5736 5736 5736 5736 5735 5735 5735 5734 5734
5741 5740 5737 5737 5736 5734 5733 5733 5732 5732 5732 5733 5735 5737 5738 5739 5739 5739 5738 5738 5737 5736 5736 5734 5734 5733 5733 5732 5732 5732 5733 5734 5734 5735 5735 5735 5735 5735 5735 5735 5735 5734 5734
5736 5734 5733 5732 5732 5729 5728 5728 5727 5727 5727 5729 5728 5729 5733 5736 5736 5737 5736 5735 5734 5734 5733 5732 5731 5731 5732 5732 5730 5729 5730 5730 5731 5732 5732 5732 5733 5734 5734 5734 5734 5734 5733
5731 5730 5729 5728 5727 5725 5724 5724 5723 5721 5722 5724 5721 5719 5718 5722 5728 5733 5732 5730 5730 5730 5729 5729 5729 5729 5729 5729 5729 5728 5728 5727 5728 5728 5728 5729 5730 5731 5732 5733 5733 5733 5733
5726 5725 5725 5724 5722 5720 5719 5719 5719 5716 5714 5717 5718 5715 5710 5708 5713 5720 5724 5725 5724 5723 5724 5726 5726 5726 5726 5726 5726 5726 5725 5725 5725 5724 5724 5725 5726 5727 5729 5730 5731 5731 5732
5719 5719 5719 5719 5717 5716 5715 5715 5715 5714 5711 5709 5711 5714 5713 5710 5707 5707 5713 5716 5718 5717 5718 5720 5721 5722 5723 5723 5722 5722 5722 5721 5721 5721 5720 5721 5722 5723 5725 5727 5728 5729 5730
5711 5712 5712 5712 5710 5710 5710 5710 5710 5709 5708 5707 5706 5707 5707 5706 5706 5703 5703 5705 5708 5710 5712 5713 5715 5716 5717 5718 5717 5717 5717 5716 5717 5718 5718 5718 5719 5720 5722 5723 5725 5727 5728
5698 5701 5703 5703 5704 5704 5704 5704 5705 5704 5704 5704 5703 5703 5702 5700 5700 5699 5699 5699 5699 5702 5706 5707 5708 5710 5711 5711 5711 5711 5711 5712 5712 5713 5714 5715 5715 5716 5718 5720 5722 5725 5727
5683 5685 5689 5692 5694 5696 5697 5697 5698 5698 5699 5699 5699 5700 5700 5700 5700 5698 5696 5696 5695 5696 5698 5699 5701 5703 5704 5704 5704 5705 5705 5706 5706 5706 5708 5709 5710 5712 5714 5717 5719 5721 5724
5667 5671 5673 5677 5681 5685 5687 5689 5691 5692 5693 5694 5695 5696 5696 5697 5698 5696 5694 5692 5690 5689 5690 5691 5693 5694 5695 5695 5695 5695 5696 5697 5698 5699 5701 5703 5705 5706 5709 5711 5714 5717 5720
5653 5655 5658 5661 5666 5670 5674 5678 5681 5684 5686 5688 5690 5691 5692 5694 5695 5695 5694 5691 5687 5684 5683 5685 5685 5686 5686 5686 5686 5686 5687 5688 5689 5691 5693 5695 5697 5700 5702 5705 5708 5711 5713
5635 5638 5642 5645 5649 5655 5660 5664 5669 5674 5677 5680 5683 5685 5687 5690 5691 5692 5692 5690 5688 5684 5681 5680 5680 5680 5679 5679 5677 5677 5678 5679 5680 5682 5684 5686 5689 5692 5694 5697 5699 5702 5704
5618 5621 5625 5628 5633 5638 5644 5650 5656 5662 5666 5671 5674 5678 5681 5684 5686 5688 5688 5687 5686 5683 5679 5677 5676 5674 5672 5671 5669 5669 5668 5669 5670 5672 5675 5677 5679 5682 5684 5686 5688 5690 5693
5600 5603 5606 5610 5616 5622 5628 5633 5640 5648 5654 5660 5665 5669 5674 5678 5680 5683 5684 5684 5683 5682 5678 5674 5671 5668 5666 5664 5663 5661 5660 5660 5661 5662 5664 5667 5669 5671 5673 5675 5677 5679 5681
5581 5585 5588 5592 5598 5604 5611 5618 5625 5633 5641 5648 5655 5660 5666 5670 5674 5677 5679 5679 5679 5679 5677 5673 5668 5664 5661 5658 5656 5653 5651 5651 5651 5652 5653 5655 5657 5659 5661 5663 5666 5667 5669
5561 5565 5570 5575 5581 5587 5594 5602 5610 5618 5627 5636 5645 5652 5658 5663 5668 5671 5673 5674 5675 5673 5672 5669 5664 5660 5656 5653 5650 5646 5643 5643 5642 5642 5643 5644 5646 5648 5650 5652 5654 5655 5657
5547 5550 5553 5557 5563 5569 5578 5586 5594 5603 5613 5623 5633 5642 5650 5656 5662 5665 5668 5669 5669 5668 5667 5665 5661 5657 5653 5648 5645 5641 5638 5634 5632 5632 5633 5634 5635 5636 5637 5639 5642 5643 5645
5539 5539 5541 5544 5548 5554 5562 5570 5578 5587 5598 5608 5619 5630 5639 5648 5654 5659 5663 5665 5666 5665 5664 5662 5658 5655 5651 5646 5641 5638 5633 5631 5626 5624 5626 5624 5625 5625 5626 5628 5630 5633 5634
5535 5535 5536 5537 5539 5542 5547 5554 5562 5571 5582 5594 5606 5617 5628 5638 5645 5650 5656 5659 5661 5662 5664 5662 5657 5654 5649 5645 5640 5634 5629 5627 5625 5620 5619 5615 5615 5615 5616 5618 5620 5622 5624
5531 5531 5532 5534 5535 5537 5540 5544 5549 5557 5567 5580 5592 5604 5616 5627 5635 5641 5646 5649 5652 5654 5657 5657 5655 5652 5648 5643 5639 5633 5627 5622 5618 5615 5615 5609 5607 5606 5607 5608 5611 5612 5614
5526 5526 5528 5530 5530 5532 5535 5538 5541 5545 5554 5566 5579 5592 5605 5616 5625 5632 5637 5640 5643 5645 5648 5649 5648 5646 5642 5638 5634 5628 5621 5618 5611 5607 5607 5605 5600 5598 5599 5599 5602 5604 5606
5520 5522 5524 5525 5526 5528 5531 5533 5535 5538 5545 5555 5568 5581 5594 5605 5614 5622 5629 5633 5635 5637 5639 5639 5638 5636 5633 5631 5629 5625 5621 5616 5609 5602 5602 5601 5596 5596 5592 5592 5594 5596 5598